Location: Linton
(52.0940°N, 0.2850°E)
Time: 09:01:20
(UTC+01:00)

ISS - Pass Details

Date: 12 October 2017
Orbit: 401 x 408 km, 51.6° (Epoch: 23 October)

Event Time Altitude Azimuth Distance (km) Brightness Sun altitude
Rises 19:55:43 0° 281° (W) 2,328 1.9 -16.8°
Reaches altitude 10° 19:58:11 10° 262° (W) 1,466 0.1 -17.2°
Maximum altitude 20:00:34 19° 216° (SW) 1,047 -1.5 -17.6°
Enters shadow 20:02:16 13° 178° (S) 1,274 -1.4 -17.8°
